GEFSSGP_500_meanwind_036.txt.gz
Wind_Speed
5 4 3 3 3 4 6 7 8 10 11 11 10 8 8 8 7 6 6 6 7 8 9 9 10 10 10 11 11 11 11 12 12 11 11 11 11 12 14 16 17 17 17 16 15 15 15 15 14
5 3 2 1 2 3 5 7 9 9 9 9 10 9 9 9 7 6 5 6 7 7 8 8 9 10 10 11 11 11 11 11 12 11 10 10 10 11 12 14 15 15 15 14 13 12 12 13 13
7 5 3 2 2 1 4 7 9 8 8 8 9 8 8 7 7 6 5 6 6 7 7 8 8 9 10 10 10 10 11 11 11 11 10 9 10 10 11 12 13 13 13 12 11 10 9 10 11
9 8 6 4 2 0 4 7 8 8 7 7 7 7 7 7 7 7 7 7 7 8 8 8 9 9 9 10 9 10 10 10 10 10 10 10 10 10 11 11 12 12 12 11 10 8 7 7 7
11 11 9 6 3 2 3 6 7 7 7 6 5 6 7 7 8 9 9 9 9 10 10 10 10 10 10 9 9 9 9 10 10 10 10 10 10 10 10 10 11 11 11 11 10 8 7 6 5
14 13 11 8 6 5 5 5 5 5 4 3 3 4 6 7 8 9 9 10 10 11 11 11 11 11 10 10 9 9 9 10 10 11 10 10 10 10 10 10 10 10 10 10 10 9 8 7 7
16 15 13 11 9 8 7 6 3 1 2 1 3 4 5 6 7 8 9 9 10 11 11 12 12 12 11 11 10 10 10 10 11 11 11 11 10 10 10 9 9 10 10 10 10 10 10 9 9
18 17 16 13 11 9 8 7 5 3 1 1 2 4 5 6 8 9 9 9 10 11 11 12 12 12 12 12 12 12 12 12 12 12 12 12 12 11 11 10 10 10 10 11 11 11 11 11 11
20 20 18 15 12 10 9 8 6 5 3 1 2 4 6 7 9 11 11 12 12 12 12 12 12 13 14 15 15 15 15 15 15 14 14 14 14 14 14 13 13 13 13 13 13 13 13 13 13
22 22 20 17 13 11 9 8 7 6 5 5 5 6 7 9 11 13 14 15 15 15 15 16 16 17 17 18 18 18 18 18 18 18 17 17 17 17 17 17 17 17 17 17 17 17 16 16 16
23 24 22 19 15 13 11 10 9 9 10 10 10 11 12 13 15 17 18 18 19 19 19 20 20 21 22 22 23 23 23 22 22 22 21 21 21 21 21 22 22 22 22 22 22 21 21 20 20
23 25 23 20 17 15 14 14 13 13 14 16 16 17 18 19 20 21 21 21 21 21 22 22 23 25 25 26 27 28 28 28 28 27 26 26 25 25 26 26 26 27 27 27 27 27 26 25 24
23 24 23 21 20 19 18 18 17 18 20 20 21 22 24 25 25 24 23 22 22 22 23 25 27 28 29 30 30 31 32 33 34 33 31 31 30 30 30 30 30 31 31 31 32 32 31 30 29
24 23 23 24 25 24 23 22 22 22 24 25 25 26 28 29 27 25 24 24 23 24 25 27 28 29 30 31 32 31 33 34 35 36 36 36 35 34 34 34 34 34 35 36 36 36 36 35 34
27 26 25 26 27 27 26 26 26 27 28 29 29 30 31 30 28 26 25 25 26 26 27 27 28 29 29 31 31 31 33 35 34 36 38 38 38 38 38 38 37 38 39 39 40 40 41 41 39
31 30 30 31 30 30 29 29 30 31 32 32 32 32 32 31 28 27 27 27 27 27 28 28 28 28 30 31 30 31 33 34 34 35 37 38 39 40 40 41 41 42 42 42 43 44 44 44 43
34 34 34 34 34 33 33 34 34 35 35 35 34 33 32 30 28 28 27 28 28 29 29 29 29 29 31 31 31 31 33 34 34 35 37 39 41 41 41 42 42 42 42 43 43 45 44 44 43
35 36 37 37 37 36 36 37 37 37 37 36 34 32 30 28 28 28 28 29 29 30 30 30 30 30 31 31 32 33 34 35 34 35 36 36 37 39 40 41 41 42 43 43 44 43 44 42 40
34 35 36 36 37 37 38 38 37 37 36 34 32 29 28 27 29 30 30 30 29 30 30 31 32 31 31 32 32 33 33 34 34 35 36 37 37 39 40 41 42 43 43 43 44 44 43 42 41
30 32 33 34 34 34 35 36 35 35 34 32 30 29 29 30 31 31 30 29 30 30 31 32 32 33 33 33 34 34 34 34 35 35 36 37 37 38 40 41 42 42 42 42 43 43 43 42 41
26 28 30 31 31 32 33 33 33 33 33 32 32 32 32 32 31 31 30 29 29 29 30 32 33 34 34 35 36 36 36 35 35 35 36 37 38 38 39 40 40 41 41 40 40 40 40 38 36
22 24 26 27 28 29 30 32 31 32 33 34 34 33 33 31 30 30 28 27 28 29 31 32 33 33 34 34 33 33 34 34 35 35 36 37 38 38 38 39 39 40 40 39 37 36 35 34 32
19 21 22 23 24 26 28 31 31 31 33 33 33 31 29 27 26 26 25 26 28 29 31 31 31 31 30 29 29 29 30 32 34 35 36 37 38 38 38 39 39 39 39 38 37 36 35 33 32
17 19 20 21 22 23 25 27 27 27 27 27 28 26 25 23 24 24 24 26 28 29 30 30 30 29 27 27 28 28 30 32 33 34 35 37 37 38 38 39 39 40 40 40 40 39 38 37 36
14 16 17 17 18 19 21 22 22 22 22 22 22 22 21 22 22 23 24 25 27 29 30 29 28 28 28 29 30 30 31 32 33 34 35 36 36 37 37 38 39 40 41 41 42 42 41 40 39
14 14 15 15 16 17 18 20 20 21 21 21 21 22 22 22 22 22 24 26 28 29 30 29 29 30 30 31 32 33 34 35 35 35 36 36 36 36 36 36 37 39 40 41 42 42 42 42 41
15 15 15 16 16 16 17 19 20 21 21 21 21 22 22 22 23 24 26 28 29 30 30 31 32 32 33 34 35 36 36 36 37 37 37 37 36 36 36 35 35 36 37 39 40 41 42 42 42
15 15 16 17 19 19 18 19 20 20 21 22 22 23 24 25 26 27 29 30 32 32 33 34 35 35 36 37 37 38 38 37 37 37 37 37 36 36 36 35 34 34 34 35 37 38 39 40 40
14 14 15 17 20 21 20 20 21 22 24 25 26 27 28 29 30 32 33 35 36 37 38 39 39 40 40 39 39 39 39 39 39 38 38 37 37 37 36 35 34 33 32 32 33 34 35 36 36
14 15 17 19 20 22 24 25 23 25 27 29 30 31 33 34 35 36 38 39 41 43 44 44 44 44 44 43 42 42 41 41 40 40 39 37 37 37 36 35 33 31 30 30 30 30 31 31 31

GEFSSGP_500_meanwind_042.txt.gz
Wind_Speed
6 7 8 9 9 9 6 6 6 7 7 7 7 7 7 7 7 6 6 6 6 5 6 6 6 5 5 5 5 6 6 6 6 6 6 7 7 8 8 8 8 8 7 6 6 6 6 7 7
3 4 6 7 9 5 3 4 6 7 8 8 8 8 8 8 7 6 5 4 4 4 4 5 4 4 4 4 5 5 6 6 6 6 6 5 6 6 6 6 6 6 6 5 4 4 4 4 5
2 2 3 5 5 2 1 1 3 7 7 8 8 7 7 7 6 5 4 3 3 3 3 4 4 4 5 5 6 6 6 6 6 6 6 5 5 5 5 5 5 5 5 5 4 3 2 2 3
5 3 1 1 2 2 2 1 1 4 5 6 6 6 6 5 5 3 2 2 2 3 3 4 5 5 6 6 7 7 7 7 7 7 6 6 5 5 5 5 4 4 5 5 5 4 3 3 3
8 6 4 4 4 3 2 2 2 2 3 3 3 3 3 3 2 2 1 2 3 3 4 4 5 6 6 7 7 7 7 7 7 7 7 7 7 7 7 6 6 5 5 5 5 5 5 5 5
11 9 8 8 7 5 4 4 4 4 3 3 2 1 0 0 1 1 2 3 4 4 5 5 6 6 7 8 8 8 8 9 9 9 9 9 9 9 9 9 8 8 7 7 7 7 7 7 7
14 13 12 11 10 8 6 6 6 6 5 4 3 2 2 1 2 2 4 5 5 6 7 7 8 8 8 9 9 10 10 11 11 12 12 12 12 12 12 12 11 11 10 10 10 10 10 10 10
17 16 14 14 12 10 8 8 7 6 5 4 4 3 3 3 4 5 6 8 9 9 10 11 12 12 12 12 13 13 13 14 15 15 15 16 16 16 16 16 15 15 14 14 14 13 13 13 13
19 18 17 17 15 12 10 9 9 7 6 5 5 5 5 6 7 8 10 11 12 13 14 15 16 17 18 18 18 18 18 18 19 19 20 20 20 20 20 20 20 19 19 18 18 18 17 17 17
20 20 20 19 16 14 11 10 9 8 7 7 7 7 8 9 11 12 14 15 16 17 18 19 20 21 22 22 22 22 22 23 23 24 24 24 25 25 25 24 24 24 23 23 23 22 22 21 21
21 22 22 19 18 16 14 12 11 9 9 9 9 10 12 13 15 16 17 19 20 20 21 22 23 24 24 24 25 25 25 26 26 27 28 28 29 29 29 29 29 29 28 28 27 27 26 26 25
22 22 22 21 19 18 17 15 13 12 13 12 12 13 15 16 18 19 21 22 23 23 23 24 24 25 25 26 26 26 26 27 28 29 30 30 31 32 32 33 33 33 33 33 33 32 31 31 30
23 23 23 23 22 20 19 18 17 16 15 14 16 17 18 19 21 23 24 26 26 26 26 26 25 25 25 26 26 25 26 27 28 29 29 30 31 32 34 35 35 36 37 38 38 37 37 36 35
26 24 23 24 24 23 21 21 20 19 19 19 19 20 22 23 25 26 28 29 29 29 28 28 27 26 26 26 25 24 25 26 27 27 28 28 29 30 31 33 35 37 39 40 41 41 41 41 40
28 25 24 26 26 25 24 24 24 23 22 22 23 24 25 26 28 29 30 31 31 30 30 29 27 27 27 27 26 25 25 25 26 26 27 27 27 28 29 31 32 35 38 40 42 43 44 44 44
29 28 26 28 27 26 25 27 29 26 26 26 27 28 28 29 29 30 31 31 32 31 30 29 28 28 28 27 26 25 25 25 25 25 25 25 26 26 27 28 30 33 34 37 39 42 44 44 44
30 29 29 30 30 29 28 31 31 29 30 30 30 30 31 31 31 32 32 32 32 31 31 31 30 30 28 27 26 25 24 24 24 23 23 23 23 24 25 26 28 31 33 34 36 37 40 42 43
28 30 31 32 33 32 32 34 34 34 34 33 33 33 32 32 32 32 32 32 32 32 32 32 32 30 29 27 26 24 24 23 22 20 20 21 21 21 23 24 27 29 32 33 35 36 38 39 40
28 29 30 35 35 35 36 37 37 37 36 36 35 34 33 32 31 31 31 32 33 33 33 34 33 31 30 28 25 23 21 19 18 17 17 18 19 21 22 24 26 28 30 32 34 36 37 38 39
22 24 27 32 34 35 36 36 37 37 36 35 34 33 31 30 30 30 31 32 33 34 35 35 34 32 30 27 25 22 19 17 16 16 17 18 20 21 23 24 26 28 30 31 34 36 37 37 38
15 17 21 26 29 30 31 30 32 33 32 32 31 30 29 29 30 31 33 34 35 35 36 35 33 32 30 27 25 22 20 19 19 19 20 21 21 22 23 25 27 28 30 31 32 35 36 37 37
9 15 17 20 20 20 24 20 25 28 28 29 30 30 30 30 31 32 33 34 35 35 35 34 33 33 30 28 26 24 23 23 22 23 24 24 24 24 25 26 27 29 29 30 31 33 35 36 37
12 13 14 15 16 17 19 17 18 26 25 26 27 27 27 28 28 30 31 32 33 33 34 34 33 32 31 29 28 27 27 27 26 27 27 27 26 26 26 26 27 29 30 30 30 32 33 35 36
13 13 13 13 13 13 16 14 15 22 21 21 22 23 23 24 26 27 29 30 31 33 33 35 34 33 32 31 31 31 31 31 31 30 30 29 28 27 27 27 29 30 30 30 31 31 32 33 35
12 11 10 10 10 11 16 14 17 19 18 18 19 19 20 21 23 26 28 30 32 33 34 35 36 35 34 34 34 34 34 34 34 33 32 31 30 29 28 28 29 30 30 31 31 31 32 32 33
12 11 11 11 11 13 16 15 18 18 18 19 20 21 22 23 25 27 29 31 33 35 37 38 38 38 37 37 37 37 37 36 35 34 33 32 31 30 29 28 29 30 30 31 31 31 32 31 31
11 11 13 14 14 14 13 18 19 19 20 21 21 23 24 26 28 30 32 33 35 37 38 39 40 41 41 40 39 39 38 38 37 36 35 33 32 31 30 30 29 30 30 30 31 31 32 31 30
11 12 12 13 14 14 14 17 21 21 21 23 25 27 29 31 33 34 35 37 38 40 42 43 44 45 45 44 43 42 41 40 38 37 36 35 34 32 31 31 30 30 30 30 31 31 31 30 30
13 13 13 14 16 17 17 20 23 23 25 27 29 31 33 35 37 39 41 42 43 45 46 47 48 49 49 48 47 46 45 43 42 40 39 38 36 35 33 32 31 31 31 30 30 30 30 30 29
14 15 16 17 18 20 21 25 24 27 29 31 33 35 37 39 41 43 45 46 47 48 49 51 51 52 53 53 52 51 50 49 47 45 42 40 39 37 35 34 33 32 31 31 30 30 30 30 29

GEFSSGP_500_meanwind_048.txt.gz
Wind_Speed
13 14 13 12 12 15 8 1 2 3 3 3 4 5 5 4 2 4 3 2 1 1 2 1 2 2 3 4 5 6 7 8 8 8 8 8 8 9 9 9 9 9 9 8 8 8 7 7 7
10 10 9 9 12 11 3 3 3 3 2 3 4 4 5 4 4 5 4 3 2 1 1 1 2 3 4 5 6 7 8 8 8 9 9 9 9 9 9 9 9 8 8 8 8 7 7 7 6
7 7 6 7 10 6 2 5 5 3 2 3 4 4 4 4 4 5 4 3 2 3 3 4 4 5 5 6 7 8 8 9 9 9 9 9 10 10 10 10 10 9 9 9 8 8 7 7 6
3 5 4 7 4 3 3 6 4 4 4 3 5 5 5 5 5 5 4 4 4 4 5 6 7 7 7 7 8 9 10 10 11 11 11 11 11 11 11 11 11 11 10 10 10 9 9 8 8
3 3 3 6 4 3 4 5 4 6 5 6 7 6 6 6 6 6 6 5 5 5 7 8 9 9 9 9 10 10 11 12 12 13 13 13 13 13 13 13 12 13 12 12 11 11 10 10 9
5 5 2 8 10 6 6 7 5 7 6 7 9 8 8 8 7 7 7 6 6 7 8 9 10 10 11 11 11 12 13 14 15 15 16 16 16 15 15 15 14 14 14 14 14 13 12 12 12
9 7 3 6 13 9 10 9 8 8 8 9 9 10 10 9 8 8 8 8 9 9 10 10 11 12 12 13 14 15 16 17 17 18 19 19 18 18 18 18 17 17 17 16 16 15 15 14 14
11 10 5 4 12 13 13 11 11 12 14 11 11 13 11 10 8 8 9 10 11 11 12 13 13 14 15 15 16 17 18 19 20 21 21 21 21 21 21 20 20 20 20 19 19 19 18 18 17
13 11 6 5 12 13 12 10 11 14 16 13 15 16 12 10 9 9 9 11 12 14 14 15 15 16 16 17 18 19 20 21 21 22 22 23 23 23 23 24 24 23 22 22 22 22 22 22 21
15 14 9 9 14 12 10 9 11 13 15 16 17 16 13 11 10 10 12 13 15 16 17 17 17 18 19 19 20 21 21 22 22 22 23 24 25 25 26 26 27 26 25 25 26 26 26 26 25
18 18 17 15 16 19 16 13 13 14 19 19 20 16 10 10 12 13 14 16 17 18 19 20 21 21 22 22 22 22 22 22 23 23 24 25 26 27 27 27 27 28 28 28 28 29 29 30 29
21 22 23 24 23 23 21 18 16 16 21 25 25 18 10 14 15 16 17 18 19 21 22 23 24 25 25 25 24 24 24 24 24 24 24 25 26 27 28 28 28 28 28 29 29 30 31 32 32
23 24 24 25 26 24 23 21 20 21 24 26 28 26 18 18 20 21 22 23 23 24 26 26 27 27 27 27 26 26 25 25 25 25 25 26 27 27 27 27 28 28 28 28 29 30 31 32 34
22 24 26 26 25 23 24 23 21 21 26 28 28 25 22 21 24 25 25 27 26 28 29 29 29 29 28 28 27 27 26 25 25 26 26 26 26 27 27 27 27 26 26 26 26 27 29 30 32
23 24 25 24 22 21 22 23 20 20 26 29 29 27 25 26 26 28 29 30 31 32 32 32 32 30 29 29 28 28 27 26 26 26 26 26 26 26 26 25 24 24 24 24 24 25 26 28 30
20 21 22 20 18 18 22 23 18 22 27 29 30 30 30 31 30 31 32 32 34 35 35 34 34 32 30 30 29 28 28 27 26 26 26 25 25 25 24 23 22 22 21 21 22 23 25 26 28
13 15 16 13 14 20 23 21 19 26 29 30 30 30 32 34 34 34 34 35 36 36 36 35 35 33 31 30 30 29 28 28 27 27 26 25 24 23 23 22 20 20 20 20 21 22 23 25 27
8 10 12 11 16 24 24 20 20 27 29 30 30 32 34 37 37 37 38 37 38 38 36 35 35 34 33 32 31 30 29 28 28 26 25 25 24 22 21 20 19 19 19 20 21 21 23 24 25
15 15 13 14 21 27 25 22 23 28 31 32 31 34 37 36 37 39 38 37 38 38 36 37 35 35 35 34 33 32 30 29 27 25 25 24 23 22 20 20 19 19 19 20 21 21 23 24 26
9 12 14 16 19 25 28 27 26 29 32 35 35 37 37 39 41 40 36 37 37 37 37 37 36 37 37 37 34 33 32 30 29 26 25 25 24 22 21 21 21 21 21 21 22 22 23 24 26
4 8 11 17 20 20 20 21 20 22 27 31 33 32 33 36 36 35 34 34 35 37 38 39 37 37 38 37 35 34 33 32 29 27 26 26 25 24 24 23 23 23 23 23 23 23 24 24 26
7 12 16 18 20 18 17 18 17 22 27 29 29 27 27 29 29 33 35 35 35 36 37 36 35 36 36 36 36 34 34 32 30 28 27 26 26 26 26 26 26 26 26 26 25 25 25 26 26
11 13 14 13 13 12 13 16 17 24 28 28 28 27 27 26 27 31 33 31 33 36 36 37 35 36 37 37 37 35 35 33 31 29 28 28 28 29 29 29 30 30 30 29 28 28 27 27 27
9 8 6 10 14 18 19 20 21 24 26 27 29 30 30 30 30 31 31 32 34 34 34 36 37 36 37 37 38 36 36 35 33 31 30 30 31 31 32 32 33 33 32 32 31 30 30 29 28
11 9 11 16 20 21 14 12 18 20 22 25 28 31 33 32 31 31 32 33 33 34 35 36 37 37 37 39 40 38 37 36 36 35 33 33 34 34 35 35 35 35 34 34 33 32 32 30 30
9 8 12 17 18 20 19 16 20 22 24 25 27 30 31 33 33 33 34 35 35 36 38 40 41 42 43 43 43 42 42 41 40 39 38 37 37 37 38 37 38 37 37 36 35 34 33 32 31
9 7 9 13 13 13 15 24 27 27 25 25 26 30 34 36 37 37 38 39 40 42 43 45 46 47 48 48 49 49 48 47 46 45 44 43 41 41 41 40 40 39 39 38 37 35 34 33 32
11 11 12 13 15 14 14 26 31 30 28 26 31 35 36 38 39 41 42 44 45 47 49 50 51 52 53 54 55 55 55 54 53 52 51 49 47 46 45 44 42 41 41 40 39 37 36 34 33
10 11 14 16 16 18 19 28 32 33 34 37 37 38 40 42 44 46 47 48 50 51 53 54 56 57 58 59 59 60 60 60 59 58 57 55 53 51 50 48 46 43 42 42 40 39 37 36 34
11 14 17 19 19 20 22 29 31 34 36 38 41 42 44 47 49 51 52 53 54 55 56 58 59 60 61 62 63 63 64 64 64 63 62 61 59 57 54 52 49 47 45 44 42 41 39 37 35

GEFSSGP_500_meanwind_054.txt.gz
Wind_Speed
12 11 10 9 8 8 6 5 3 3 5 5 6 7 5 2 1 4 3 4 3 2 1 1 1 2 2 3 4 4 5 5 6 7 8 8 9 9 10 10 10 10 10 10 10 10 9 8 7
10 8 8 8 6 6 3 2 2 3 3 3 3 4 4 3 2 3 4 4 4 3 3 3 3 3 4 4 4 5 5 5 6 7 7 8 9 9 9 9 10 10 10 10 10 10 9 8 8
8 6 4 4 4 3 2 1 2 3 4 3 2 2 3 3 3 4 4 5 5 5 4 4 4 5 5 5 5 5 6 6 6 7 7 8 9 9 9 9 9 9 10 10 10 10 9 9 8
8 7 4 4 2 2 2 2 1 4 5 5 5 3 3 4 5 5 5 6 6 6 5 5 6 6 6 6 6 6 6 7 7 8 9 9 9 10 10 10 10 10 10 10 10 10 10 9 9
9 8 6 7 7 5 5 5 3 4 7 7 6 5 5 5 6 6 6 6 7 6 6 6 7 7 7 8 8 8 9 9 10 10 11 11 12 12 12 11 11 11 11 11 11 11 11 11 10
11 9 8 10 10 8 7 7 7 8 8 8 8 8 7 6 7 7 7 7 7 7 8 8 8 8 9 10 10 11 12 12 12 13 14 14 14 14 14 13 13 13 13 13 13 13 13 13 12
13 11 9 9 8 6 9 10 9 9 9 10 10 11 10 8 7 8 8 8 8 8 9 9 10 11 11 12 13 13 14 14 15 15 16 16 16 16 16 16 16 16 15 15 15 16 16 16 15
15 15 12 12 9 6 8 9 10 10 11 11 12 13 14 11 9 8 9 9 9 9 10 11 11 12 13 14 14 15 15 16 17 17 18 18 18 18 18 18 18 18 18 18 18 18 19 19 19
17 17 16 15 13 8 7 8 12 12 13 13 15 17 18 16 12 10 10 10 10 11 12 12 13 13 14 15 16 16 17 17 18 18 19 19 19 20 20 20 20 20 20 20 20 20 21 21 22
18 18 20 20 17 14 11 11 13 14 14 16 17 18 20 20 15 13 12 13 13 13 13 14 15 15 16 16 17 18 18 18 19 19 20 20 20 21 21 21 22 22 22 22 22 22 23 23 23
20 19 23 25 22 20 17 16 17 17 17 17 19 21 21 21 19 17 16 16 17 17 17 17 17 18 19 19 19 19 19 20 20 21 21 21 21 22 22 22 23 23 23 23 23 23 23 23 23
20 20 24 27 27 26 23 22 21 22 23 23 23 24 24 24 22 20 20 19 20 19 20 20 20 21 21 22 21 21 21 21 21 21 22 22 22 22 22 23 23 23 23 23 23 22 21 21 22
20 21 24 27 29 29 28 27 26 26 27 27 28 28 27 27 25 24 23 22 23 23 22 22 23 23 23 24 24 23 23 22 21 21 22 22 23 23 23 23 23 23 23 22 21 20 19 19 20
20 21 21 22 25 29 30 29 29 28 28 30 30 30 29 28 27 27 27 27 26 26 26 26 28 27 26 26 26 25 24 23 22 22 22 23 23 23 24 23 23 22 22 21 19 19 18 18 18
19 19 18 19 21 23 27 29 28 26 27 28 28 29 29 30 30 30 30 31 30 30 30 29 31 31 30 30 28 27 25 24 24 24 23 23 24 24 23 22 22 21 20 19 17 17 16 15 16
19 17 15 15 17 18 23 25 22 22 24 25 27 28 30 32 32 31 32 33 33 34 33 33 35 35 34 31 30 28 27 25 24 25 25 24 25 24 23 22 21 20 19 18 17 17 15 15 15
17 15 13 12 12 14 17 17 16 19 22 25 28 30 32 34 35 35 36 36 37 36 35 36 38 37 34 31 31 28 26 26 26 26 27 25 25 24 23 22 21 20 19 18 17 16 15 15 14
14 13 11 11 11 13 14 16 18 21 25 27 31 33 34 35 36 37 38 39 39 35 36 36 33 33 31 32 30 27 26 26 27 28 27 25 24 24 24 24 22 21 20 18 17 16 16 15 14
10 10 11 12 12 14 15 17 20 23 27 30 33 35 35 35 36 37 40 40 38 38 36 34 34 34 32 30 28 26 26 27 28 27 26 25 25 25 24 24 23 22 21 20 19 18 18 17 16
9 13 15 16 17 18 19 22 25 27 30 32 35 36 37 37 37 37 38 36 35 37 37 34 33 30 27 25 24 26 27 27 27 27 26 27 27 25 25 24 24 23 22 22 21 20 20 20 19
12 15 17 20 21 22 24 25 27 31 32 34 34 34 33 34 35 34 35 35 36 36 33 32 30 28 27 25 27 27 26 26 28 27 26 26 26 26 26 26 25 24 24 24 23 22 22 22 22
9 13 16 18 22 24 26 28 29 31 31 31 32 32 31 32 32 33 34 33 33 32 33 32 30 28 30 29 27 26 27 27 28 27 27 27 27 26 25 26 26 26 26 26 25 25 24 24 24
8 10 13 15 17 20 21 24 26 28 29 30 31 31 31 32 32 33 34 33 34 33 32 32 31 30 31 30 29 28 28 29 29 29 29 29 28 27 27 27 27 27 28 28 28 28 27 26 26
9 10 11 12 13 15 16 19 20 22 23 25 27 28 29 30 30 32 33 34 35 34 34 34 34 34 33 33 33 33 33 33 33 32 32 31 30 30 29 28 28 29 30 30 31 30 30 29 28
8 9 9 10 11 12 15 17 17 18 18 20 21 22 24 26 28 29 32 34 36 37 38 38 39 38 38 38 39 40 40 39 39 39 38 37 35 34 33 32 32 32 32 33 33 33 33 32 31
8 9 10 11 11 13 15 17 18 20 20 20 21 24 24 25 27 30 33 37 39 41 42 43 45 46 46 47 47 47 47 47 46 46 45 44 42 41 40 38 38 37 36 37 37 37 37 36 34
10 11 13 14 15 16 17 19 19 22 23 24 26 27 28 30 33 36 39 42 43 45 47 49 50 51 51 52 53 53 53 53 53 52 51 50 50 48 47 46 45 44 43 42 42 41 41 40 38
12 13 14 15 16 17 19 21 23 25 26 28 31 32 34 37 40 42 44 46 47 49 51 52 53 54 55 55 56 56 57 57 57 57 57 56 55 54 53 53 52 51 50 48 47 46 45 44 43
12 13 13 15 16 19 22 24 26 29 31 34 36 38 41 43 45 47 49 51 52 53 54 56 57 58 59 60 60 61 61 61 61 61 61 61 60 59 58 57 57 56 55 53 52 50 49 47 46
13 14 14 16 17 21 25 28 30 33 36 39 41 43 45 48 50 52 54 56 57 59 60 61 62 63 64 64 65 65 66 66 66 66 66 66 65 64 63 62 60 59 58 57 56 54 53 51 49

GEFSSGP_500_meanwind_060.txt.gz
Wind_Speed
6 6 5 5 4 4 3 4 6 5 4 3 3 3 3 4 5 7 7 8 8 8 8 8 9 9 8 8 7 7 6 6 5 5 5 5 6 6 7 7 7 7 7 7 7 6 6 5 5
7 7 7 6 6 5 4 5 6 6 6 6 5 4 4 4 5 6 7 8 9 9 9 10 10 10 10 9 9 8 8 7 7 6 6 6 6 7 7 7 7 7 7 7 7 6 6 5 4
8 9 8 8 7 6 6 6 6 6 6 6 6 6 6 6 6 7 7 8 9 10 11 12 12 11 11 10 10 9 9 9 9 9 9 9 8 8 8 9 9 9 8 8 8 7 6 6 5
11 11 11 10 9 8 8 8 8 6 6 6 7 7 7 7 8 8 9 9 10 11 12 13 13 12 12 11 11 11 11 11 11 11 11 11 11 11 11 11 11 11 10 10 9 9 8 7 6
14 14 14 14 13 12 12 11 10 9 8 8 8 8 8 8 8 9 10 11 11 12 13 13 13 13 12 12 13 13 13 13 13 13 13 14 14 14 14 14 14 13 13 12 12 12 11 10 9
17 17 17 17 17 15 16 15 14 13 11 10 10 9 8 8 9 10 11 12 13 13 13 13 13 13 13 14 14 14 14 15 15 15 16 16 16 17 17 16 16 16 15 15 15 15 14 14 13
19 19 19 20 20 20 19 18 17 16 14 12 10 9 8 8 8 10 12 13 13 14 14 14 14 14 14 15 15 15 16 16 17 18 18 19 19 19 19 19 18 18 18 17 17 17 17 17 16
21 21 21 22 23 23 23 22 20 17 15 13 11 10 10 9 9 9 11 12 13 15 16 16 16 16 16 16 17 17 18 18 19 19 20 20 21 21 21 21 20 20 20 19 19 19 19 19 19
22 23 22 24 25 25 25 24 22 20 16 13 12 11 10 10 10 10 11 13 15 16 17 18 18 19 19 19 19 19 19 20 20 20 21 21 22 22 22 22 22 21 21 20 20 20 21 20 20
22 23 23 26 28 27 27 26 24 22 19 16 14 13 11 11 11 12 13 15 17 18 19 20 22 22 22 22 22 22 22 22 22 22 22 22 22 22 22 23 22 22 21 21 21 21 21 21 20
23 22 24 27 29 29 28 27 26 25 22 20 18 17 15 15 15 15 16 17 18 20 22 23 24 25 25 25 25 25 26 25 24 24 23 23 23 23 23 23 23 22 22 21 21 21 21 21 21
23 22 24 27 29 30 30 29 29 28 25 23 21 20 18 18 18 18 19 20 22 23 24 26 27 28 28 28 28 29 29 29 28 28 26 25 24 24 23 23 23 22 22 21 21 21 21 21 21
24 23 24 26 28 30 31 31 31 29 27 26 25 24 22 22 22 22 22 23 24 25 27 29 30 31 32 33 33 33 33 32 32 31 30 27 25 25 24 24 24 23 22 22 22 21 21 20 20
25 23 23 25 28 30 32 33 33 31 31 30 28 27 26 25 25 24 24 25 26 27 29 31 33 35 35 36 38 38 38 36 35 34 33 29 27 26 25 25 24 24 23 22 22 21 21 20 19
24 23 23 25 28 30 33 33 33 33 32 31 31 30 29 28 27 26 25 26 27 29 31 33 34 35 37 39 40 40 40 39 37 36 34 31 29 27 25 24 24 24 23 23 22 21 20 19 19
23 22 23 25 27 29 30 32 31 31 31 31 31 31 31 29 28 28 28 28 29 30 32 34 35 36 38 39 40 42 40 40 38 37 35 32 29 26 25 25 24 24 24 23 22 21 20 20 19
22 22 23 24 26 27 27 28 27 27 28 29 30 29 28 28 28 28 29 30 32 32 34 35 37 37 36 39 41 41 38 35 34 35 34 30 28 26 25 25 25 25 24 24 23 22 20 20 19
20 21 22 23 24 24 24 24 23 22 24 25 26 27 28 28 29 30 32 33 34 34 36 37 37 35 36 37 37 35 32 29 29 29 30 29 27 26 27 26 26 25 25 24 24 24 22 21 20
18 19 20 21 22 22 22 22 21 21 22 24 26 27 29 30 32 33 35 36 37 37 38 39 37 36 37 36 34 31 27 24 24 23 25 27 25 25 27 27 27 25 25 24 24 24 23 22 22
16 17 19 21 21 22 22 21 21 21 22 24 26 28 31 33 35 37 38 38 39 39 38 38 37 35 35 34 32 28 25 23 21 20 21 23 23 24 25 25 26 25 25 25 25 26 25 25 24
13 14 16 17 19 21 23 22 22 23 25 27 29 31 33 35 37 38 39 39 38 38 37 37 37 35 34 32 31 28 26 24 22 22 22 22 24 25 25 25 25 26 26 27 27 28 27 27 27
11 12 13 14 16 18 20 22 22 24 27 28 30 32 34 35 36 36 35 35 36 36 37 37 36 36 36 34 32 30 28 27 26 26 26 26 26 26 26 27 27 28 28 28 28 30 31 30 29
10 11 12 13 14 15 17 19 21 23 24 25 27 27 29 29 30 32 31 32 33 34 35 36 37 37 37 37 36 34 32 31 30 29 29 28 29 29 29 30 30 30 30 30 31 31 33 33 33
8 9 10 12 12 13 14 16 17 19 20 22 24 24 24 24 26 27 28 31 33 34 35 36 38 39 40 40 39 39 38 37 36 35 34 34 35 35 36 35 34 34 35 34 34 34 35 35 35
9 9 10 10 10 10 12 14 15 17 18 20 22 22 23 25 28 30 32 33 35 36 38 39 41 42 42 42 42 42 42 42 42 42 42 42 42 42 41 41 40 39 38 38 37 38 38 38 38
10 10 12 12 11 11 12 14 15 17 19 21 22 24 26 29 32 34 34 36 37 38 40 41 42 44 44 45 46 46 46 47 47 47 47 47 48 48 47 47 46 45 44 42 42 42 42 42 41
10 11 13 14 13 13 14 15 17 18 21 22 25 28 30 32 34 36 37 38 39 41 42 43 45 46 47 48 48 49 50 51 51 52 52 53 53 53 53 53 52 51 50 49 48 48 47 46 45
10 11 13 14 16 16 16 17 20 21 24 27 30 32 33 35 36 38 39 41 43 44 45 46 47 48 48 49 50 51 53 54 55 56 57 57 58 58 58 58 58 57 56 56 55 54 53 52 50
11 13 14 15 16 18 19 21 23 25 28 31 33 35 36 38 39 41 43 45 46 47 48 49 50 50 50 51 51 52 53 54 54 55 56 57 59 60 61 62 62 62 62 61 60 59 58 57 56
13 14 15 17 18 19 22 24 26 29 31 33 35 37 39 41 43 45 47 48 50 51 52 53 54 55 55 55 54 53 53 53 52 51 51 52 53 56 59 62 63 64 65 65 65 64 63 62 60

GEFSSGP_500_meanwind_066.txt.gz
Wind_Speed
2 2 2 2 3 4 5 6 6 6 5 4 3 3 3 4 5 5 6 6 6 6 7 7 7 7 8 9 10 11 11 11 10 9 8 8 7 6 5 4 4 4 3 3 3 2 2 1 1
4 4 4 4 4 5 8 7 8 7 7 5 5 5 4 4 5 5 5 5 5 6 7 7 7 8 9 10 10 11 12 11 11 10 10 9 9 8 7 6 6 6 5 4 4 3 3 2 2
7 7 7 7 7 7 9 9 9 9 8 8 7 7 7 6 6 5 5 5 6 6 7 7 8 9 10 11 11 11 12 12 12 11 11 11 11 10 9 8 8 8 7 6 6 5 4 4 4
10 10 9 9 10 11 12 12 11 11 10 10 10 10 9 8 7 6 6 6 6 7 7 7 8 9 10 11 11 12 12 12 12 12 13 13 12 12 11 11 10 10 9 9 8 7 7 6 6
13 12 12 12 14 15 15 15 14 13 12 12 12 13 12 10 9 8 7 7 7 8 8 8 9 10 11 12 12 13 13 13 14 14 14 14 14 14 14 14 13 12 12 11 10 10 9 9 8
15 14 13 13 17 18 19 18 17 15 14 14 14 14 13 11 11 10 9 8 8 9 9 10 11 12 13 13 14 14 15 15 15 16 16 16 16 17 17 16 15 15 14 13 13 12 12 12 11
17 17 17 17 20 21 21 19 17 15 15 14 14 14 14 12 12 11 11 10 10 10 11 12 13 14 15 16 16 17 17 18 18 18 19 19 19 19 19 18 18 18 17 16 15 15 15 15 14
19 19 19 20 22 23 23 20 19 16 15 13 13 14 14 14 13 12 12 11 12 13 14 15 16 18 18 19 19 20 20 21 21 21 22 22 22 21 21 20 20 20 19 18 17 17 17 17 17
20 20 20 22 24 25 24 23 21 19 17 15 14 14 15 14 14 13 13 14 15 16 17 18 19 21 21 21 22 22 23 23 24 24 25 25 25 24 24 23 23 22 21 20 19 19 19 19 19
22 21 22 24 24 25 25 25 24 21 20 18 17 16 16 15 16 16 16 16 17 18 19 20 21 23 24 24 25 26 26 27 27 28 28 29 29 28 27 26 25 24 23 22 21 20 20 20 20
24 23 23 24 25 25 26 26 25 24 22 21 20 19 18 18 18 19 19 20 20 21 22 23 24 25 26 27 29 29 30 30 31 32 33 33 33 32 31 30 28 27 26 25 23 22 21 21 20
25 24 24 24 25 25 26 27 27 26 26 25 23 23 22 21 21 21 22 22 22 23 24 25 26 28 29 30 31 32 33 34 35 35 35 36 35 36 35 33 32 30 28 27 26 23 22 22 21
26 25 25 25 25 26 26 27 28 28 27 27 26 25 25 24 24 24 24 24 25 26 27 28 29 30 31 32 33 33 35 36 37 38 38 38 38 38 38 37 35 33 31 29 26 24 24 23 22
26 25 24 24 24 24 25 26 28 27 28 28 28 28 28 28 27 27 27 27 28 29 30 31 32 33 34 34 34 35 37 38 38 37 37 38 38 38 39 38 36 33 32 30 28 26 25 24 23
23 22 22 23 22 23 23 25 26 26 27 28 29 29 29 29 29 29 29 30 30 32 33 33 34 35 36 35 36 35 36 37 36 37 37 38 38 38 39 39 37 35 33 32 30 29 27 25 24
20 18 18 21 21 21 21 23 24 24 25 26 27 28 29 30 30 30 30 31 32 33 34 35 36 37 38 37 35 34 35 34 34 36 38 37 37 38 39 39 38 36 34 32 31 30 29 27 26
15 14 16 19 19 20 20 22 23 23 23 24 25 25 27 28 29 29 30 31 32 34 35 36 37 38 38 37 36 35 35 34 34 34 34 33 32 33 36 37 37 37 35 32 31 29 30 29 27
12 12 14 17 18 18 20 21 22 22 22 23 22 22 23 25 26 28 29 31 33 35 37 37 39 40 39 39 38 37 36 36 35 32 29 28 28 30 32 33 33 35 35 32 31 30 30 29 28
12 11 12 15 16 17 18 20 20 21 21 21 21 22 22 23 25 27 30 32 34 37 38 39 40 40 40 40 39 37 36 35 33 31 29 26 26 28 27 29 30 31 32 31 31 30 30 30 29
9 8 10 13 13 14 16 17 19 19 19 20 20 21 23 25 27 29 32 33 35 36 38 38 38 38 38 37 36 36 35 34 33 31 29 26 26 27 27 28 29 30 29 29 31 31 30 29 29
6 7 9 11 12 12 12 13 15 16 17 19 20 22 24 26 28 29 32 32 33 35 35 36 36 36 36 36 36 36 36 34 32 31 29 27 26 27 27 28 29 29 29 29 30 31 31 31 31
6 8 7 8 8 10 9 10 14 13 15 17 18 19 21 23 26 29 30 31 32 33 34 34 35 35 36 37 37 37 36 35 34 33 32 30 30 29 29 29 29 30 30 31 31 31 30 30 31
6 6 6 7 7 8 9 8 15 13 14 16 18 20 21 23 25 27 29 30 31 32 33 34 35 36 37 38 38 39 38 38 38 37 36 34 34 34 33 33 33 32 33 32 32 32 31 31 32
5 5 6 7 7 8 10 8 15 14 16 18 19 20 21 23 26 28 29 31 32 34 35 37 38 39 39 40 41 41 41 41 41 40 40 39 38 37 38 38 37 37 37 36 35 35 35 35 35
6 5 6 8 8 10 12 11 15 15 17 19 20 22 23 25 27 29 31 32 34 36 37 38 40 41 42 43 44 44 44 44 44 43 43 43 42 42 42 42 42 42 42 41 40 40 39 39 39
6 5 6 7 8 11 13 13 15 16 18 19 21 23 25 27 29 31 32 33 35 37 39 40 41 43 44 45 45 46 45 45 46 46 46 46 46 46 46 46 46 47 47 47 47 46 44 43 43
6 6 7 8 9 9 12 15 15 17 19 21 22 24 26 28 30 32 33 35 37 39 41 42 43 44 45 45 46 46 46 46 47 47 47 48 48 49 49 50 50 52 53 53 54 53 52 50 49
6 7 8 8 9 9 13 17 17 18 20 22 24 26 28 30 32 33 35 37 39 41 42 43 44 45 45 46 47 47 47 48 48 48 49 49 50 50 51 53 53 54 56 57 58 59 59 57 56
7 8 8 9 10 11 13 18 18 20 21 23 26 28 30 31 33 35 38 40 42 43 44 44 45 46 47 47 47 48 48 49 49 49 49 50 51 51 52 54 55 56 58 60 61 62 63 63 62
8 10 10 11 13 13 15 20 19 21 23 26 28 30 32 33 36 38 40 42 44 45 45 46 47 47 47 48 48 48 49 49 50 50 51 52 53 53 54 54 56 58 60 61 63 64 65 66 66

GEFSSGP_500_meanwind_072.txt.gz
Wind_Speed
6 6 6 5 6 6 8 10 6 8 8 9 8 7 9 9 9 9 10 11 9 9 8 8 8 8 8 8 8 9 9 10 10 11 11 11 10 10 9 9 9 9 8 8 8 7 6 6 5
6 6 6 6 9 12 12 10 8 10 11 10 10 8 11 10 10 10 10 11 10 9 9 9 9 8 8 8 9 9 9 10 11 11 11 11 11 10 10 9 9 9 9 8 8 7 7 6 6
7 6 6 6 9 13 13 11 11 12 13 12 12 12 11 11 11 11 11 12 11 10 10 9 9 9 9 9 9 10 10 11 11 12 12 12 11 11 11 10 10 10 10 9 9 8 8 8 7
8 7 6 5 8 8 11 13 13 12 14 13 13 14 13 13 13 13 13 12 11 11 10 10 9 9 10 10 10 11 12 12 12 13 13 13 13 12 12 12 11 11 11 10 10 10 10 9 9
10 8 5 7 10 8 12 16 14 11 14 14 14 16 16 15 15 15 15 14 12 12 12 11 11 11 11 11 12 13 13 14 14 14 14 14 14 14 14 14 14 13 12 12 12 12 12 11 11
13 11 7 4 8 11 15 20 15 11 12 14 14 17 16 16 15 15 16 15 13 12 12 12 12 13 14 15 15 16 16 16 17 17 17 17 17 17 16 16 16 15 15 14 14 14 14 14 14
15 14 11 6 5 11 18 22 19 14 14 15 15 18 19 16 15 15 16 15 15 14 14 14 15 16 16 17 18 18 19 19 20 20 20 20 21 20 20 19 19 18 18 17 16 16 16 16 16
17 17 13 6 3 10 18 22 19 16 16 17 17 19 22 16 15 15 16 16 16 16 17 17 17 18 19 19 20 20 21 21 22 23 23 23 23 23 23 23 22 22 21 20 19 19 19 18 18
20 19 14 7 6 12 16 19 16 17 17 19 19 20 21 17 15 16 17 17 18 18 18 18 19 20 21 21 21 22 22 23 24 25 26 26 26 26 26 26 26 25 24 23 22 22 21 20 20
22 21 17 13 14 18 19 20 17 17 17 21 20 19 19 18 18 17 18 18 19 20 20 20 20 21 22 23 23 24 25 26 27 28 28 29 30 30 30 29 28 28 27 27 26 25 23 22 22
24 23 20 19 19 22 22 21 19 18 20 25 25 22 21 22 22 19 19 20 21 22 22 22 22 23 24 25 25 26 27 28 29 30 30 31 32 32 33 32 31 30 30 29 28 28 26 24 23
25 24 23 22 22 24 24 23 21 22 25 28 28 26 25 25 25 22 22 23 22 24 25 25 25 26 27 28 29 29 30 30 31 32 32 32 33 34 34 34 34 32 31 30 31 29 28 26 25
23 23 23 23 23 24 24 23 23 24 27 27 27 27 26 26 27 25 26 24 25 26 28 28 28 29 30 31 32 32 32 33 34 34 33 33 35 36 36 36 36 35 34 33 32 31 30 29 27
20 20 21 20 21 21 22 21 22 24 26 26 27 26 26 27 28 29 29 29 29 29 30 30 31 32 33 34 34 36 36 35 36 36 35 35 35 35 37 38 37 36 36 35 34 33 32 30 29
17 16 15 16 18 18 19 18 20 24 24 25 25 25 25 27 28 29 30 30 31 31 32 33 33 34 35 36 37 38 37 37 37 37 36 36 36 37 37 37 37 37 37 37 35 33 32 31 29
9 10 11 12 17 16 15 17 22 24 23 23 24 23 23 25 27 28 30 31 32 32 33 34 34 35 36 37 39 39 39 39 39 39 38 38 38 37 38 36 36 37 35 34 34 33 33 31 30
7 9 11 13 15 12 14 20 23 23 22 22 22 22 22 23 25 27 28 29 31 32 32 34 35 36 38 40 40 41 41 40 40 40 40 39 39 39 38 36 36 35 34 34 33 33 32 32 31
8 11 11 12 13 13 16 21 23 22 22 21 20 20 21 22 23 24 26 27 29 30 32 34 36 38 40 40 40 40 40 40 41 40 40 40 39 38 38 36 35 32 32 31 31 31 30 31 30
8 8 9 10 14 16 18 20 21 21 20 21 20 20 20 20 21 23 24 26 27 29 31 34 36 38 39 39 40 40 40 40 40 40 40 39 38 37 36 35 33 31 30 28 29 31 31 30 31
9 10 10 13 17 16 17 18 19 18 17 17 17 17 18 20 21 23 24 26 28 30 32 34 35 36 38 39 40 40 40 40 39 39 38 38 37 37 35 34 33 32 30 29 30 31 32 32 32
9 12 13 15 16 16 15 18 19 17 13 13 14 15 17 18 20 22 24 25 27 29 31 33 35 36 38 39 39 39 39 39 40 39 38 38 38 37 36 35 34 33 31 30 31 31 32 33 32
11 11 12 13 14 15 17 21 19 16 10 10 12 14 16 17 19 20 22 24 26 28 30 32 34 35 36 37 38 38 39 40 40 40 40 39 39 38 38 37 35 34 32 32 31 31 31 33 33
10 10 11 13 16 19 20 21 19 13 9 10 11 14 17 19 21 22 24 25 27 29 30 32 33 34 35 37 38 40 41 42 42 42 41 41 41 40 40 39 38 37 36 35 33 33 33 34 34
8 10 13 15 18 20 18 17 15 13 15 14 16 17 19 21 23 24 25 26 28 29 31 32 33 35 36 38 40 41 42 43 43 43 43 43 43 42 41 41 40 40 39 38 36 35 34 34 35
7 11 16 16 16 13 10 13 11 11 16 18 20 21 22 23 25 26 27 28 29 31 32 34 36 37 39 40 41 42 43 44 44 44 44 44 44 44 44 42 42 42 41 41 40 40 39 38 38
7 10 15 17 20 17 11 13 8 11 17 19 21 22 24 25 27 28 30 31 32 34 36 37 39 40 41 42 42 43 44 44 45 45 45 45 45 45 45 44 44 44 44 44 44 44 44 43 42
8 8 10 12 15 17 19 20 16 15 19 21 23 24 25 27 29 31 32 34 35 37 39 40 41 42 43 44 43 43 43 44 44 44 45 45 45 45 45 45 45 45 46 46 46 47 48 48 46
11 10 10 9 10 12 18 21 21 22 22 23 25 26 28 29 31 33 35 36 37 39 41 42 44 45 45 44 44 43 43 43 44 44 45 46 46 47 47 47 46 46 46 47 48 49 49 50 51
11 12 11 10 9 8 14 21 22 23 23 24 26 28 29 31 33 35 36 38 39 41 43 44 45 45 45 45 45 44 44 44 45 45 46 47 47 48 49 49 49 49 49 49 49 50 51 52 52
10 12 12 12 10 10 11 21 23 24 24 25 27 29 31 33 34 36 37 39 41 43 44 44 45 45 45 45 44 44 44 45 46 47 48 48 48 49 49 50 50 50 50 50 50 51 52 53 54

GEFSSGP_500_meanwind_078.txt.gz
Wind_Speed
4 5 6 7 6 5 5 8 11 10 10 10 10 8 8 8 8 7 7 7 7 7 7 7 7 6 6 6 6 6 6 6 7 7 8 8 8 8 8 8 8 9 9 8 8 7 7 6 6
4 4 4 5 5 5 5 8 11 12 14 14 13 12 10 9 8 7 7 6 7 7 7 7 6 6 6 6 6 6 6 6 7 7 7 7 7 7 7 8 8 8 8 8 8 8 7 7 6
6 4 2 3 2 4 5 9 10 13 16 17 18 16 13 10 9 8 8 8 7 7 6 6 5 5 5 6 6 6 6 7 7 7 8 8 8 8 8 8 8 9 9 9 9 8 8 8 7
8 6 3 1 2 2 5 7 7 13 16 18 19 18 16 13 11 10 9 8 7 6 6 6 6 6 6 6 7 7 8 7 8 8 8 9 9 9 9 9 9 10 10 10 10 10 10 10 9
10 8 5 4 5 4 4 7 10 13 17 19 20 19 17 15 14 12 10 9 7 6 6 7 7 7 8 8 8 9 9 9 9 9 10 10 10 10 10 10 11 11 11 12 12 12 12 11 11
13 10 6 4 5 4 2 5 10 15 19 20 22 20 18 16 13 12 11 9 7 6 6 7 9 9 9 9 10 10 10 11 11 11 11 12 12 12 12 12 12 13 13 13 14 14 14 14 13
16 12 7 7 6 4 3 5 10 15 18 19 21 21 19 16 14 13 12 10 8 7 8 9 10 10 11 11 11 11 12 12 12 13 13 14 15 15 15 15 14 15 15 15 15 16 16 16 16
19 15 10 10 11 9 8 8 12 15 17 20 22 23 21 19 16 13 12 12 10 9 9 10 10 11 12 12 12 12 13 13 13 14 15 16 16 17 17 18 18 18 18 17 18 18 18 18 18
22 18 13 14 15 13 12 12 15 18 20 21 23 24 22 20 18 15 13 13 12 11 11 11 11 11 12 13 13 14 14 15 15 16 17 18 18 18 19 20 20 19 19 19 20 20 20 20 20
24 19 17 18 19 18 16 16 19 21 23 24 25 25 24 23 21 19 16 14 14 14 14 13 13 13 14 14 15 15 16 17 17 18 19 20 20 20 20 21 21 21 21 20 21 21 22 22 22
26 22 20 20 22 22 19 19 22 25 26 28 28 28 28 26 23 23 20 17 17 16 16 16 15 16 16 16 17 17 18 19 20 20 22 22 22 23 23 23 23 23 23 23 23 24 24 24 23
26 23 23 22 22 23 22 22 23 26 28 29 30 31 31 27 26 24 22 20 19 17 17 18 17 17 18 19 19 20 20 21 22 23 24 25 25 26 24 23 24 25 25 26 26 26 27 26 26
24 22 22 21 21 23 23 23 24 26 27 28 30 30 29 28 27 25 23 23 20 19 19 19 20 20 21 21 21 23 23 23 24 26 26 27 28 27 27 25 26 26 26 27 28 28 28 28 28
18 17 17 18 18 20 22 24 25 26 27 28 29 30 28 27 27 26 24 24 21 20 19 20 20 21 23 23 23 24 25 25 27 28 28 28 28 28 28 28 28 28 28 28 28 29 29 29 28
13 13 12 12 14 17 20 23 25 25 26 27 28 28 28 27 27 25 24 25 22 21 22 22 23 23 23 25 26 27 28 29 31 31 31 31 30 30 30 30 29 29 29 28 28 29 28 27 26
9 10 10 9 12 15 18 20 22 24 24 24 24 25 26 26 25 24 24 23 22 23 23 24 24 25 25 26 27 29 30 32 32 33 33 33 32 32 32 31 31 31 30 30 29 30 28 28 27
5 6 7 10 12 13 17 19 20 20 20 21 21 22 23 23 22 22 22 22 22 23 23 23 24 25 25 27 28 29 31 32 33 34 34 35 34 34 33 32 32 32 31 31 31 31 28 27 27
5 6 7 9 12 14 16 19 19 20 21 20 20 19 20 20 21 21 21 21 22 23 23 24 25 26 27 29 30 31 32 34 35 35 36 36 36 36 35 34 33 33 32 31 31 30 28 28 27
7 8 8 10 13 14 17 19 20 20 18 18 18 18 17 17 18 19 20 21 22 22 23 25 26 28 29 30 31 32 34 35 35 36 36 36 37 36 35 35 34 33 32 32 31 29 28 28 27
8 7 7 9 12 14 17 19 20 18 16 16 17 16 14 14 15 16 18 20 21 23 24 25 26 28 29 31 32 34 35 35 35 35 36 36 37 36 36 36 35 35 34 33 32 30 29 28 29
7 8 9 10 12 13 16 18 16 15 16 15 14 11 11 11 13 15 17 19 20 22 24 25 26 28 30 31 33 34 35 35 36 36 37 37 38 38 38 38 37 36 36 35 33 32 30 29 29
8 9 11 11 13 14 17 18 16 15 15 13 10 9 9 10 12 14 16 18 19 21 23 25 27 29 31 32 34 35 36 37 38 38 38 38 39 39 39 39 39 38 37 37 35 34 33 31 30
10 10 11 11 12 14 16 16 14 13 10 7 6 6 9 10 12 13 15 17 19 21 23 25 27 29 31 33 35 36 38 39 39 40 40 40 40 39 39 39 39 39 38 38 37 36 35 34 32
9 10 10 11 13 14 14 11 8 8 5 2 2 5 7 9 11 14 16 18 20 21 24 26 27 29 31 33 35 37 38 39 39 40 40 40 40 40 39 39 39 39 38 38 38 37 37 36 35
8 9 9 10 12 13 13 10 7 8 8 6 5 6 8 11 13 15 17 19 21 23 25 28 29 31 33 35 37 38 38 39 39 40 40 41 41 40 40 39 39 38 38 38 38 38 37 37 37
8 9 9 10 11 11 12 12 11 11 11 8 8 9 11 14 16 18 20 22 25 27 29 30 32 34 35 37 38 38 38 39 39 40 40 40 41 40 40 39 39 39 39 39 38 38 38 38 38
8 9 10 10 10 10 9 10 12 12 11 11 11 13 15 18 20 22 24 26 28 30 32 34 36 37 38 39 39 39 39 40 40 40 40 40 40 40 40 40 40 40 40 40 40 40 39 39 39
10 11 10 9 10 10 10 11 13 13 14 13 15 17 20 22 24 26 27 30 32 34 36 39 40 41 41 41 41 41 40 40 40 40 40 41 41 41 41 41 41 41 40 40 40 40 40 41 41
8 8 8 9 10 12 13 14 15 16 16 17 19 22 24 25 27 28 30 32 35 37 40 42 42 43 42 42 42 42 41 41 41 41 42 42 42 42 43 43 42 42 42 42 41 41 42 42 42
8 8 9 11 12 14 16 17 17 18 19 21 23 25 26 27 28 30 32 35 37 40 41 42 43 42 42 42 42 42 42 42 42 42 43 43 43 43 43 44 43 43 44 44 44 45 45 45 45

GEFSSGP_500_meanwind_084.txt.gz
Wind_Speed
5 4 3 2 1 1 2 3 4 5 6 8 10 11 11 11 11 10 9 7 6 6 6 5 4 4 4 4 4 4 4 4 4 4 4 4 4 4 4 4 5 5 5 5 5 5 5 5 4
6 5 5 4 4 4 5 4 4 4 3 5 7 10 11 11 11 10 10 8 7 7 7 6 5 4 4 4 4 4 4 4 4 4 4 4 4 4 4 4 4 5 5 5 5 5 4 4 3
8 7 7 7 7 7 8 7 6 4 4 5 6 8 10 11 11 11 10 9 8 8 7 7 6 5 4 4 4 4 4 4 5 5 5 5 5 6 6 6 5 5 6 6 6 5 5 5 4
10 10 10 10 11 11 11 10 10 8 7 7 7 9 10 11 12 12 11 11 9 9 8 7 7 5 5 5 5 5 5 5 6 6 6 7 7 7 8 8 8 8 8 8 8 8 7 7 7
13 12 13 13 14 13 14 14 13 12 10 9 9 9 10 11 12 12 12 11 10 10 9 8 8 7 6 6 6 6 6 6 7 8 8 8 9 9 10 10 11 11 11 11 11 10 10 10 9
16 15 15 15 16 16 17 16 16 14 13 11 10 10 10 11 12 11 12 11 11 10 10 9 9 9 8 8 8 8 8 8 8 9 9 10 10 11 12 12 13 13 14 14 14 13 13 12 12
18 17 17 17 19 19 20 18 18 17 15 13 11 11 11 10 11 12 12 13 12 12 12 12 11 11 10 9 9 9 9 9 10 10 11 12 12 13 13 14 14 15 16 16 16 16 15 15 14
21 19 19 20 21 22 23 21 20 19 17 15 14 12 11 11 12 13 14 15 14 15 15 14 12 12 12 11 11 10 10 10 10 11 11 12 13 14 14 15 16 16 17 18 18 18 17 17 17
23 21 21 22 24 24 25 24 23 20 19 18 16 14 13 13 14 14 15 16 16 16 16 15 14 14 14 13 13 13 12 12 11 12 12 13 14 15 16 16 17 17 18 19 19 19 19 19 19
24 22 22 24 26 27 27 27 25 22 21 19 17 16 15 15 15 17 18 18 18 17 16 17 17 17 16 16 16 15 15 14 14 14 14 15 16 16 17 18 19 19 20 20 20 20 21 21 21
24 23 24 25 27 28 28 28 27 25 24 22 19 19 17 16 17 19 20 20 19 18 19 19 20 20 19 19 19 19 18 17 17 16 16 17 18 19 19 19 20 21 22 22 22 22 22 23 23
22 22 23 25 27 28 29 29 29 27 26 24 21 20 20 20 20 21 21 21 20 20 21 21 22 22 22 22 21 21 20 20 20 20 20 19 20 21 21 22 22 22 23 23 24 24 25 25 25
20 19 20 23 25 26 27 28 29 28 27 25 23 22 21 22 22 22 21 21 20 21 21 22 22 23 23 22 23 23 24 24 23 22 22 21 22 24 22 23 24 24 24 24 25 25 25 26 27
17 17 18 20 22 23 25 26 27 28 28 26 26 25 24 24 23 23 23 21 21 21 22 21 21 22 23 23 24 24 23 23 20 20 22 23 23 23 24 25 26 25 25 26 26 26 25 26 26
14 14 15 18 20 21 23 23 24 26 27 27 26 26 25 25 24 23 21 21 21 20 20 20 21 22 23 23 23 22 20 19 19 20 21 23 24 25 26 27 27 27 27 27 27 27 27 27 27
12 13 14 15 17 19 21 21 21 23 25 26 26 26 25 25 23 21 20 18 18 19 19 19 19 21 21 21 21 21 21 21 21 22 23 24 26 27 27 28 28 28 29 29 28 28 28 28 27
11 12 12 13 14 15 17 19 20 21 22 23 24 24 23 22 21 20 18 16 17 17 17 17 19 19 20 21 21 20 21 23 23 23 24 26 27 28 29 29 30 30 30 30 29 29 28 28 28
10 10 10 11 11 12 12 15 16 17 19 21 22 22 20 21 20 19 17 16 16 16 17 18 18 19 21 21 21 22 23 24 25 26 27 28 29 30 30 31 31 31 31 31 30 30 30 29 28
9 9 9 9 10 10 11 13 15 17 17 18 19 19 19 19 18 16 15 15 15 16 17 18 18 20 21 22 23 24 25 27 28 29 29 30 31 32 32 32 33 33 33 32 32 31 31 30 29
7 8 8 9 11 11 11 12 13 14 15 16 15 16 15 15 14 13 14 14 15 16 17 18 19 20 22 23 25 26 28 28 29 30 32 32 33 34 34 34 34 35 35 34 34 33 32 32 31
8 8 9 9 10 10 10 10 11 12 12 11 12 12 10 10 10 11 13 14 15 16 17 18 20 21 23 24 26 28 29 31 32 33 34 35 36 36 36 36 36 36 36 36 36 35 34 33 33
8 9 10 10 10 9 9 9 10 9 8 7 7 8 8 9 10 11 12 14 14 16 18 20 21 23 24 26 27 29 30 32 33 35 36 37 37 37 37 37 37 37 37 37 37 36 35 35 34
8 9 10 10 9 9 9 9 9 7 6 5 5 6 7 7 9 11 13 14 16 17 19 21 22 24 26 28 29 31 32 34 35 36 37 37 38 38 37 37 37 37 37 37 37 37 37 36 36
8 8 9 8 8 8 8 7 7 6 5 4 4 4 5 6 8 11 13 15 17 18 20 22 24 26 28 29 31 32 33 34 35 36 36 37 37 38 38 37 37 37 38 38 38 38 38 37 37
8 9 8 7 7 7 7 6 7 6 5 4 4 5 6 7 9 12 14 16 17 19 21 23 26 27 29 30 32 33 33 33 34 34 35 35 36 36 37 37 37 37 37 37 38 38 38 38 37
9 9 9 8 6 6 6 6 5 5 4 4 4 6 7 9 12 14 15 17 18 21 23 25 27 28 30 31 32 33 33 33 34 34 34 34 35 35 36 36 36 36 37 37 37 37 37 37 37
9 9 9 8 6 6 5 5 5 5 5 5 7 8 9 11 13 14 16 17 19 21 24 26 28 30 31 32 32 33 33 34 34 34 35 35 35 35 36 36 37 37 37 37 37 37 37 37 37
8 8 8 7 7 6 4 5 6 6 7 8 9 10 11 12 14 15 16 18 21 23 26 29 31 32 33 33 33 34 34 34 35 35 35 35 36 36 37 37 37 38 38 38 38 38 38 38 38
7 7 7 7 7 6 6 6 7 7 8 9 10 11 12 13 15 16 19 21 24 27 29 32 33 33 33 34 34 35 35 36 36 36 36 37 37 37 37 38 38 39 39 39 39 39 40 40 40
7 8 7 7 8 7 7 7 8 8 10 11 12 12 14 15 17 19 21 24 26 29 32 33 34 34 35 35 35 36 37 37 37 37 38 37 37 38 38 39 39 40 40 40 40 40 41 41 42